Location: Complexul Astronomic Baia Mare
(47.6577°N, 23.5639°E)
Time: 06:51:04
(UTC+03:00)

ISS - Pass Details

Date: 27 May 2017
Orbit: 402 x 408 km, 51.6° (Epoch: 29 May)

Event Time Altitude Azimuth Distance (km) Brightness Sun altitude
Rises 01:58:50 0° 292° (WNW) 2,333 0.2 -20.6°
Reaches altitude 10° 02:00:57 10° 296° (WNW) 1,470 -0.8 -20.5°
Maximum altitude 02:04:12 57° 16° (NNE) 487 -3.2 -20.4°
Drops below altitude 10° 02:07:27 10° 97° (E) 1,462 -1.0 -20.3°
Sets 02:09:33 0° 101° (E) 2,319 0.0 -20.3°
